TimeCDT,TemperatureF,Dew PointF,Humidity,Sea Level PressureIn,VisibilityMPH,Wind Direction,Wind SpeedMPH,Gust SpeedMPH,PrecipitationIn,Events,Conditions,WindDirDegrees,DateUTC
12:53 AM,75.9,66.9,74,30.00,10.0,East,4.6,-,N/A,,Clear,90,2013-07-29 05:53:00
1:53 AM,73.0,66.9,81,30.01,10.0,ENE,4.6,-,N/A,,Clear,70,2013-07-29 06:53:00
2:53 AM,72.0,66.9,84,30.01,10.0,ENE,5.8,-,N/A,,Clear,60,2013-07-29 07:53:00
3:53 AM,72.0,68.0,87,30.01,10.0,East,4.6,-,N/A,,Clear,80,2013-07-29 08:53:00
4:53 AM,72.0,68.0,87,30.01,10.0,ENE,6.9,-,N/A,,Overcast,70,2013-07-29 09:53:00
5:53 AM,72.0,68.0,87,30.02,10.0,East,6.9,-,N/A,,Scattered Clouds,90,2013-07-29 10:53:00
6:53 AM,72.0,68.0,87,30.03,10.0,East,6.9,-,N/A,,Clear,80,2013-07-29 11:53:00
7:53 AM,73.9,69.1,85,30.04,10.0,East,10.4,-,N/A,,Scattered Clouds,80,2013-07-29 12:53:00
8:53 AM,75.9,69.1,79,30.05,10.0,East,11.5,-,N/A,,Scattered Clouds,80,2013-07-29 13:53:00
9:53 AM,80.1,70.0,71,30.04,10.0,East,9.2,-,N/A,,Clear,80,2013-07-29 14:53:00
10:40 AM,82.4,71.6,70,30.06,10.0,East,11.5,-,N/A,,Mostly Cloudy,90,2013-07-29 15:40:00
10:53 AM,82.0,71.1,69,30.05,10.0,East,5.8,-,N/A,,Overcast,90,2013-07-29 15:53:00
11:53 AM,82.9,71.1,67,30.04,10.0,SE,8.1,-,N/A,,Overcast,140,2013-07-29 16:53:00
12:53 PM,84.9,72.0,65,30.03,10.0,ESE,9.2,16.1,N/A,,Mostly Cloudy,120,2013-07-29 17:53:00
1:53 PM,84.9,72.0,65,30.02,10.0,SE,8.1,-,N/A,,Overcast,140,2013-07-29 18:53:00
2:53 PM,88.0,73.0,61,30.00,10.0,SE,9.2,-,N/A,,Mostly Cloudy,140,2013-07-29 19:53:00
3:53 PM,88.0,73.0,61,30.00,10.0,SSE,6.9,-,N/A,,Mostly Cloudy,150,2013-07-29 20:53:00
4:00 PM,89.6,73.4,59,30.01,10.0,SE,8.1,-,N/A,,Mostly Cloudy,140,2013-07-29 21:00:00
4:53 PM,89.1,73.0,59,29.97,10.0,SSE,8.1,-,N/A,,Mostly Cloudy,160,2013-07-29 21:53:00
5:53 PM,89.1,72.0,57,29.96,10.0,SSE,6.9,-,N/A,,Clear,150,2013-07-29 22:53:00
6:53 PM,89.1,72.0,57,29.96,10.0,Variable,5.8,-,N/A,,Clear,0,2013-07-29 23:53:00
7:53 PM,87.1,72.0,61,29.97,10.0,SSE,8.1,-,N/A,,Partly Cloudy,160,2013-07-30 00:53:00
8:53 PM,86.0,73.0,65,29.97,10.0,SE,3.5,-,N/A,,Mostly Cloudy,140,2013-07-30 01:53:00
9:53 PM,84.0,73.0,69,29.99,10.0,ESE,5.8,-,N/A,,Mostly Cloudy,110,2013-07-30 02:53:00
10:53 PM,84.0,73.0,69,29.98,10.0,SE,4.6,-,N/A,,Partly Cloudy,130,2013-07-30 03:53:00
11:53 PM,84.0,72.0,67,29.99,10.0,ESE,5.8,-,N/A,,Mostly Cloudy,120,2013-07-30 04:53:00